Location: Unspecified
(44.5899°N, 128.9834°E)
Time: 15:18:56
(UTC+08:00)

Resurs 01 Rocket - Visible Passes

Search period start: 29 June 2017 00:00
Search period end: 09 July 2017 00:00
Orbit: 634 x 645 km, 98.2° (Epoch: 28 June)

Date Brightness Start Highest point End Pass type
(mag) Time Alt. Az. Time Alt. Az. Time Alt. Az.
01 Jul 4.2 19:56:41 10° SW 19:59:44 18° W 20:02:49 10° NW visible
02 Jul 4.7 20:22:32 10° W 20:23:20 10° W 20:24:09 10° WNW visible
05 Jul 4.1 19:53:21 10° SW 19:56:34 20° W 19:59:50 10° NW visible
06 Jul 4.5 20:18:41 10° WSW 20:20:10 11° W 20:21:38 10° WNW visible
